User: anonymous   Login
Location: Unspecified
(0.0000°N, 0.0000°E)
Time: 09:28:06
(UTC+02:00)
Language:

Cosmos 1892 Rocket - Orbit

View from above orbital plane
View from above orbital plane
View from above satellite
View from above satellite

Ground track
Ground track

The orbit data is extracted from the following two-line orbital elements,

1 18422U 87088B   16153.17734522  .00000108  00000-0  10351-4 0  9998
2 18422  82.5106 173.8786 0018103 252.7360 174.1287 14.82864305545352
Epoch (UTC): 01 June 2016 04:15:22
Eccentricity: 0.0018103
inclination: 82.5106°
perigee height: 607 km
apogee height: 633 km
right ascension of ascending node: 173.8786°
argument of perigee: 252.7360°
revolutions per day: 14.82864305
mean anomaly at epoch: 174.1287°
orbit number at epoch: 54535

The dashed part of the orbit path shows where the satellite is in the earth's shadow,  

DLR